Currently 59°F in San Jacinto, California, USA
59°F
70°F / 54°F
1 mph SW
0.00"
Monday, May 17, 2021 11:47 PM PDT

San Jacinto, California Weather Summary
Last 36 Hours

Temperature Winds Hourly Humidity Dewpoint
Time Report Norm Report Norm Max Gusts Precip. Rpt. Norm Rpt. Norm Pressure
1Mon 11:47 PM  58.8°F  59°F  1 mph SW  1 mph  3 mph  0.00"  82%  72%  53°F  50°F  30.03"
Mon 11:00 PM  59.9°F  60°F  calm  1 mph  3 mph  0.00"  80%  71%  53°F  51°F  30.03"
Mon 10:00 PM  61.3°F  62°F  calm  2 mph  8 mph  0.00"  73%  68%  52°F  51°F  30.03"
Mon 09:00 PM  62.4°F  64°F  calm  2 mph  3 mph  0.00"  71%  63%  53°F  50°F  30.01"
Mon 08:00 PM  64.0°F  66°F  calm  3 mph  3 mph  0.00"  68%  58%  53°F  50°F  30.00"
Mon 07:00 PM  66.0°F  70°F  calm  4 mph  10 mph  0.00"  62%  50%  52°F  50°F  29.98"
Mon 06:00 PM  69.4°F  73°F  calm  5 mph  3 mph  0.00"  54%  45%  51°F  50°F  29.97"
Mon 05:00 PM  70.2°F  75°F  calm  6 mph  9 mph  0.00"  53%  41%  52°F  49°F  29.97"
Mon 04:00 PM  70.2°F  77°F  1 mph NW  5 mph  8 mph  0.00"  53%  38%  52°F  49°F  29.99"
2Mon 03:46 PM  70.3°F  77°F  calm  5 mph  7 mph  ----  53%  37%  52°F  48°F  29.99"
Mon 03:00 PM  69.6°F  77°F  2 mph NW  4 mph  8 mph  0.00"  54%  36%  52°F  48°F  30.00"
Mon 02:00 PM  67.8°F  77°F  calm  4 mph  3 mph  0.00"  56%  36%  51°F  47°F  30.02"
Mon 01:00 PM  64.8°F  75°F  1 mph SW  3 mph  3 mph  0.00"  62%  39%  51°F  47°F  30.04"
Mon 12:00 PM  60.8°F  73°F  calm  3 mph  1 mph  0.00"  70%  44%  51°F  48°F  30.05"
Mon 11:00 AM  59.4°F  69°F  calm  2 mph  none  0.00"  74%  50%  51°F  49°F  30.05"
Mon 10:00 AM  56.8°F  66°F  calm  2 mph  none  0.00"  83%  57%  51°F  50°F  30.05"
Mon 09:00 AM  55.0°F  62°F  calm  1 mph  none  0.00"  88%  66%  51°F  50°F  30.06"
Mon 08:00 AM  54.3°F  59°F  calm  1 mph  none  0.00"  89%  73%  51°F  50°F  30.06"
Mon 07:00 AM  54.1°F  56°F  calm  1 mph  2 mph  0.00"  90%  78%  51°F  49°F  30.04"
Mon 06:00 AM  53.8°F  55°F  1 mph SW  1 mph  3 mph  0.00"  89%  80%  51°F  48°F  30.03"
3Mon 05:46 AM  53.8°F  55°F  1 mph SW  1 mph  3 mph  ----  89%  80%  51°F  48°F  30.03"
Mon 05:00 AM  54.0°F  55°F  3 mph SW  1 mph  6 mph  0.00"  88%  79%  50°F  49°F  30.03"
Mon 04:00 AM  54.1°F  56°F  2 mph SW  1 mph  6 mph  0.00"  87%  79%  50°F  49°F  30.02"
Mon 03:00 AM  54.1°F  57°F  1 mph SW  1 mph  5 mph  0.00"  86%  78%  50°F  50°F  30.01"
Mon 02:00 AM  54.1°F  57°F  1 mph SW  1 mph  3 mph  0.00"  86%  76%  50°F  50°F  30.02"
Mon 01:00 AM  54.1°F  58°F  calm  1 mph  1 mph  0.00"  88%  75%  50°F  50°F  30.02"
Mon 12:04 AM  55.0°F  60°F  calm  1 mph  2 mph  0.00"  83%  72%  50°F  50°F  30.02"
Sun 11:00 PM  55.2°F  61°F  calm  1 mph  9 mph  0.00"  80%  71%  49°F  51°F  30.02"
Sun 10:00 PM  55.8°F  62°F  1 mph S  2 mph  9 mph  0.00"  79%  67%  49°F  51°F  30.01"
Sun 09:00 PM  56.5°F  64°F  calm  2 mph  9 mph  0.00"  78%  63%  49°F  51°F  30.00"
Sun 08:00 PM  57.2°F  66°F  1 mph S  3 mph  7 mph  0.00"  76%  58%  49°F  50°F  29.98"
Sun 07:00 PM  58.1°F  71°F  1 mph SW  4 mph  9 mph  0.00"  73%  50%  49°F  50°F  29.98"
Sun 06:00 PM  58.6°F  74°F  1 mph S  5 mph  10 mph  0.00"  72%  44%  49°F  50°F  29.97"
Sun 05:00 PM  59.9°F  76°F  calm  6 mph  11 mph  0.00"  70%  39%  50°F  49°F  29.96"
Sun 04:00 PM  61.3°F  78°F  2 mph SW  5 mph  11 mph  0.00"  67%  37%  50°F  48°F  29.97"
Sun 03:00 PM  62.8°F  78°F  3 mph SW  4 mph  11 mph  0.00"  65%  35%  50°F  48°F  29.97"
Sun 02:00 PM  61.9°F  77°F  1 mph SW  4 mph  13 mph  0.00"  65%  36%  50°F  47°F  29.98"
Sun 01:00 PM  62.2°F  76°F  2 mph S  3 mph  11 mph  0.00"  63%  39%  49°F  48°F  29.98"
Sun 12:00 PM  61.5°F  73°F  1 mph SW  3 mph  7 mph  0.00"  61%  43%  47°F  49°F  29.98"

  1. Current weather data. No green row appears if the current weather data is also the high or low for the current day.
  2. High temperature for the current day.
  3. Low temperature for the current day.

The San Jacinto, California weather pages are a service of WeatherCurrents. San Jacinto is located in the heart of the San Jacinto Valley, near Hemet, the Soboba Casino, and at the foot of the San Jacinto Mountains.
Copyright ©2021  WeatherCurrents. All rights reserved. - Submit questions and comments - Privacy Policy

This page automatically refreshes every 10 minutes.